Main page
METAR-TAF:

METAR-TAF

Airports :

Kharg Island, Iran

Kharg Airport

latitude: 29-15-34N, longitude: 50-19-24E, elevation: 5 m

Current weather observation

The report was made 5 hours and 34 minutes ago, at 15:00 UTC
Wind 16 kt from the North
Temperature 20°C
Humidity 60%
Pressure 1022 hPa
Visibility 10 km or more
no clouds below 1500 m and no cumulonimbus

METAR: OIBQ 181500Z 35016KT CAVOK 20/12 Q1022

Time: 00:04 (20:34 UTC)


TAF: missing

Weather observations and forecasts of more than 4000 airports (METAR and TAF reports).

The available stations are represented by yellow and red dots on the map.

Hover mouse over dot to see the name of the station.

Then click to see weather observations and forecasts.

To change the map : click on the green buttons with a black cross to zoom in, on the green button with a dash to zoom out, or on the green arrows for adjacent maps.


METAR-TAF: